Location: *
(37.5724°S, 58.0067°E)
Time: 00:24:30
(UTC+00:00)

H-2A ROCKET BODY - Pass Details

Date: 23 January 2021
Orbit: 216 x 15034 km, 28.6° (Epoch: 06 March)

Event Time Altitude Azimuth Distance (km) Brightness Sun altitude
Rises 15:32:08 0° 4° (N) 9,007 7.2 -1.7°
Reaches altitude 10° 15:41:12 10° 18° (NNE) 10,011 7.3 -3.3°
Maximum altitude 16:58:01 29° 72° (ENE) 17,271 8.3 -16.0°
Drops below altitude 10° 18:28:45 10° 103° (ESE) 15,393 8.4 -27.4°
Sets 18:43:31 0° 109° (ESE) 14,336 8.4 -28.8°
